Flag for U.S.A. Weather past 2 weeks in Juneau, Alaska, U.S.A.

Now
50 °F

Passing clouds.


Feels Like: 50 °F
Forecast: 44 / 69 °F
Wind: No wind

Location: Juneau International Airport

Current Time: May 29, 2015 at 7:12:39 AM

Latest Report: May 29, 2015 at 5:53 AM


Visibility: 10 mi

Pressure: 30.16 "Hg

Humidity: 80%

Dew point: 44 °F

Location of JuneauLocation

Historic Weather in Juneau — Graph

°F

Juneau temperature yesterday

Maximum temperature yesterday: 71 °F (at 2:53 PM)
Minimum temperature yesterday: 46 °F (at 12:53 AM)
Average temperature yesterday: 58 °F

Past Weeks' High & Low Weather Summary

 TemperatureHumidityPressure
High73 °F (May 18, 3:53 PM)97% (May 28, 2:00 AM)30.25 "Hg (May 28, 2:00 AM)
Low43 °F (May 14, 4:53 AM)30% (May 28, 2:53 PM)29.86 "Hg (May 14, 7:53 PM)
Average58 °F66%30.08 "Hg
* Reported May 14 4:53 AM — May 29 4:53 AM, Juneau, Weather by CustomWeather, © 2015

Note: Actual official high and low records may vary slightly from our data, if they occured in-between our weather recording intervals... More about our weather records

Advertising

Juneau weather history for previous 24 hours

 ConditionsComfort  
Time TempWeatherWind HumidityBarometerVisibility
4:53 AM
Fri, May 29
47 °FPassing clouds.3 mph83%30.16 "Hg10 mi
3:53 AM46 °FPassing clouds.No wind83%30.17 "Hg10 mi
2:53 AM48 °FPassing clouds.No wind83%30.17 "Hg10 mi
1:53 AM50 °FClear.No wind80%30.16 "Hg10 mi
12:53 AM50 °FClear.No wind77%30.16 "Hg10 mi
11:53 PM
Thu, May 28
52 °FClear.No wind75%30.17 "Hg10 mi
10:53 PM55 °FClear.No wind69%30.17 "Hg10 mi
9:53 PM59 °FPassing clouds.No wind62%30.16 "Hg10 mi
8:53 PM61 °FPassing clouds.3 mph56%30.15 "Hg10 mi
7:53 PM68 °FPassing clouds.8 mph39%30.15 "Hg10 mi
6:53 PM70 °FPassing clouds.9 mph35%30.15 "Hg10 mi
5:53 PM71 °FPassing clouds.5 mph30%30.16 "Hg10 mi
4:53 PM71 °FPassing clouds.8 mph30%30.17 "Hg10 mi
3:53 PM71 °FPassing clouds.18 mph30%30.17 "Hg10 mi
2:53 PM71 °FPassing clouds.9 mph30%30.19 "Hg10 mi
1:53 PM70 °FPassing clouds.9 mph31%30.19 "Hg10 mi
12:53 PM63 °FPassing clouds.9 mph60%30.20 "Hg10 mi
11:53 AM59 °FPassing clouds.13 mph69%30.22 "Hg10 mi
10:53 AM58 °FPassing clouds.7 mph72%30.22 "Hg10 mi
9:53 AM55 °FScattered clouds.10 mph77%30.23 "Hg10 mi
8:53 AM54 °FBroken clouds.7 mph80%30.24 "Hg10 mi
7:53 AM52 °FBroken clouds.6 mph83%30.25 "Hg10 mi
Weather by CustomWeather, © 2015

See weather overviewHow to use our weather pages